Time,TemperatureF,DewpointF,PressureIn,WindDirection,WindDirectionDegrees,WindSpeedMPH,WindSpeedGustMPH,Humidity,HourlyPrecipIn,Conditions,Clouds,dailyrainin,SolarRadiationWatts/m^2,SoftwareType,DateUTC
2013-08-29 00:02:00,69.0,45.0,-100.00,NNE,29,8.0,22.0,42,0.00,,,0.00,0.000000,,2013-08-29 06:02:00,
2013-08-29 00:12:00,69.0,45.0,-100.00,NNE,29,8.0,22.0,42,0.00,,,0.00,0.000000,,2013-08-29 06:12:00,
2013-08-29 00:21:00,69.0,45.0,-100.00,NNE,29,8.0,22.0,42,0.00,,,0.00,0.000000,,2013-08-29 06:21:00,
2013-08-29 00:52:00,66.0,47.0,-100.00,SSE,165,3.0,8.0,50,0.00,,,0.00,0.000000,,2013-08-29 06:52:00,
2013-08-29 01:01:00,66.0,47.0,-100.00,SSE,165,3.0,8.0,50,0.00,,,0.00,0.000000,,2013-08-29 07:01:00,
2013-08-29 01:12:00,66.0,47.0,-100.00,SSE,165,3.0,8.0,50,0.00,,,0.00,0.000000,,2013-08-29 07:12:00,
2013-08-29 01:21:00,66.0,47.0,-100.00,SSE,165,3.0,8.0,50,0.00,,,0.00,0.000000,,2013-08-29 07:21:00,
2013-08-29 01:22:00,62.0,47.0,-100.00,SSW,199,4.0,6.0,57,0.00,,,0.00,0.000000,,2013-08-29 07:22:00,
2013-08-29 01:53:00,62.0,47.0,-100.00,SSW,199,4.0,6.0,57,0.00,,,0.00,0.000000,,2013-08-29 07:53:00,
2013-08-29 02:02:00,62.0,47.0,-100.00,SSW,199,4.0,6.0,57,0.00,,,0.00,0.000000,,2013-08-29 08:02:00,
2013-08-29 02:12:00,62.0,47.0,-100.00,SSW,199,4.0,6.0,57,0.00,,,0.00,0.000000,,2013-08-29 08:12:00,
2013-08-29 02:52:00,62.0,46.0,-100.00,WSW,243,8.0,10.0,56,0.00,,,0.00,0.000000,,2013-08-29 08:52:00,
2013-08-29 03:01:00,62.0,46.0,-100.00,WSW,243,8.0,10.0,56,0.00,,,0.00,0.000000,,2013-08-29 09:01:00,
2013-08-29 03:12:00,62.0,46.0,-100.00,WSW,243,8.0,10.0,56,0.00,,,0.00,0.000000,,2013-08-29 09:12:00,
2013-08-29 03:21:00,62.0,46.0,-100.00,WSW,243,8.0,10.0,56,0.00,,,0.00,0.000000,,2013-08-29 09:21:00,
2013-08-29 03:22:00,62.0,46.0,-100.00,WSW,247,8.0,11.0,56,0.00,,,-99.99,0.000000,,2013-08-29 09:22:00,
2013-08-29 03:55:00,62.0,46.0,-100.00,WSW,247,8.0,11.0,56,0.00,,,-99.99,0.000000,,2013-08-29 09:55:00,
2013-08-29 04:06:00,62.0,46.0,-100.00,WSW,247,8.0,11.0,56,0.00,,,-99.99,0.000000,,2013-08-29 10:06:00,
2013-08-29 04:14:00,62.0,46.0,-100.00,WSW,247,8.0,11.0,56,0.00,,,-99.99,0.000000,,2013-08-29 10:14:00,
2013-08-29 04:22:00,62.0,45.0,-100.00,WNW,296,1.0,10.0,53,0.00,,,0.00,0.000000,,2013-08-29 10:22:00,
2013-08-29 04:53:00,62.0,45.0,-100.00,WNW,296,1.0,10.0,53,0.00,,,0.00,0.000000,,2013-08-29 10:53:00,
2013-08-29 05:03:00,62.0,45.0,-100.00,WNW,296,1.0,10.0,53,0.00,,,0.00,0.000000,,2013-08-29 11:03:00,
2013-08-29 05:12:00,62.0,45.0,-100.00,WNW,296,1.0,10.0,53,0.00,,,0.00,0.000000,,2013-08-29 11:12:00,
2013-08-29 05:22:00,64.0,45.0,-100.00,SW,228,6.0,11.0,51,0.00,,,0.00,0.000000,,2013-08-29 11:22:00,
2013-08-29 05:52:00,64.0,45.0,-100.00,SW,228,6.0,11.0,51,0.00,,,0.00,0.000000,,2013-08-29 11:52:00,
2013-08-29 06:02:00,64.0,45.0,-100.00,SW,228,6.0,11.0,51,0.00,,,0.00,0.000000,,2013-08-29 12:02:00,
2013-08-29 06:11:00,64.0,45.0,-100.00,SW,228,6.0,11.0,51,0.00,,,0.00,0.000000,,2013-08-29 12:11:00,
2013-08-29 06:22:00,63.0,46.0,-100.00,WSW,241,10.0,13.0,54,0.00,,,0.00,0.000000,,2013-08-29 12:22:00,
2013-08-29 06:52:00,63.0,46.0,-100.00,WSW,241,10.0,13.0,54,0.00,,,0.00,0.000000,,2013-08-29 12:52:00,
2013-08-29 07:02:00,63.0,46.0,-100.00,WSW,241,10.0,13.0,54,0.00,,,0.00,0.000000,,2013-08-29 13:02:00,
2013-08-29 07:12:00,63.0,46.0,-100.00,WSW,241,10.0,13.0,54,0.00,,,0.00,0.000000,,2013-08-29 13:12:00,
2013-08-29 07:52:00,65.0,45.0,-100.00,SSW,210,3.0,14.0,48,0.00,,,0.00,27.000000,,2013-08-29 13:52:00,
2013-08-29 08:02:00,65.0,45.0,-100.00,SSW,210,3.0,14.0,48,0.00,,,0.00,27.000000,,2013-08-29 14:02:00,
2013-08-29 08:11:00,65.0,45.0,-100.00,SSW,210,3.0,14.0,48,0.00,,,0.00,27.000000,,2013-08-29 14:11:00,
2013-08-29 08:21:00,65.0,45.0,-100.00,SSW,210,3.0,14.0,48,0.00,,,0.00,27.000000,,2013-08-29 14:21:00,
2013-08-29 08:52:00,70.0,46.0,-100.00,NNW,327,3.0,6.0,43,0.00,,,0.00,195.000000,,2013-08-29 14:52:00,
2013-08-29 09:02:00,70.0,46.0,-100.00,NNW,327,3.0,6.0,43,0.00,,,0.00,195.000000,,2013-08-29 15:02:00,
2013-08-29 09:12:00,70.0,46.0,-100.00,NNW,327,3.0,6.0,43,0.00,,,0.00,195.000000,,2013-08-29 15:12:00,
2013-08-29 09:21:00,70.0,46.0,-100.00,NNW,327,3.0,6.0,43,0.00,,,0.00,195.000000,,2013-08-29 15:21:00,
2013-08-29 09:22:00,77.0,46.0,-100.00,NE,56,2.0,5.0,34,0.00,,,0.00,419.000000,,2013-08-29 15:22:00,
2013-08-29 09:53:00,77.0,46.0,-100.00,NE,56,2.0,5.0,34,0.00,,,0.00,419.000000,,2013-08-29 15:53:00,
2013-08-29 10:04:00,77.0,46.0,-100.00,NE,56,2.0,5.0,34,0.00,,,0.00,419.000000,,2013-08-29 16:04:00,
2013-08-29 10:13:00,77.0,46.0,-100.00,NE,56,2.0,5.0,34,0.00,,,0.00,419.000000,,2013-08-29 16:13:00,
2013-08-29 10:22:00,81.0,48.0,-100.00,East,83,5.0,9.0,32,0.00,,,0.00,648.000000,,2013-08-29 16:22:00,
2013-08-29 10:54:00,81.0,48.0,-100.00,East,83,5.0,9.0,32,0.00,,,0.00,648.000000,,2013-08-29 16:54:00,
2013-08-29 11:03:00,81.0,48.0,-100.00,East,83,5.0,9.0,32,0.00,,,0.00,648.000000,,2013-08-29 17:03:00,
2013-08-29 11:13:00,81.0,48.0,-100.00,East,83,5.0,9.0,32,0.00,,,0.00,648.000000,,2013-08-29 17:13:00,
2013-08-29 11:52:00,83.0,46.0,-100.00,ESE,109,8.0,14.0,27,0.00,,,0.00,850.000000,,2013-08-29 17:52:00,
2013-08-29 12:01:00,83.0,46.0,-100.00,ESE,109,8.0,14.0,27,0.00,,,0.00,850.000000,,2013-08-29 18:01:00,
2013-08-29 12:11:00,83.0,46.0,-100.00,ESE,109,8.0,14.0,27,0.00,,,0.00,850.000000,,2013-08-29 18:11:00,
2013-08-29 12:21:00,83.0,46.0,-100.00,ESE,109,8.0,14.0,27,0.00,,,0.00,850.000000,,2013-08-29 18:21:00,
2013-08-29 12:22:00,87.0,47.0,-100.00,East,98,10.0,18.0,25,0.00,,,0.00,900.000000,,2013-08-29 18:22:00,
2013-08-29 12:52:00,87.0,47.0,-100.00,East,98,10.0,18.0,25,0.00,,,0.00,900.000000,,2013-08-29 18:52:00,
2013-08-29 13:01:00,87.0,47.0,-100.00,East,98,10.0,18.0,25,0.00,,,0.00,900.000000,,2013-08-29 19:01:00,
2013-08-29 13:11:00,87.0,47.0,-100.00,East,98,10.0,18.0,25,0.00,,,0.00,900.000000,,2013-08-29 19:11:00,
2013-08-29 13:53:00,90.0,46.0,-100.00,East,100,7.0,16.0,22,0.00,,,0.00,983.000000,,2013-08-29 19:53:00,
2013-08-29 14:02:00,90.0,46.0,-100.00,East,100,7.0,16.0,22,0.00,,,0.00,983.000000,,2013-08-29 20:02:00,
2013-08-29 14:12:00,90.0,46.0,-100.00,East,100,7.0,16.0,22,0.00,,,0.00,983.000000,,2013-08-29 20:12:00,
2013-08-29 14:21:00,90.0,46.0,-100.00,East,100,7.0,16.0,22,0.00,,,0.00,983.000000,,2013-08-29 20:21:00,
2013-08-29 14:22:00,89.0,45.0,-100.00,NE,44,7.0,16.0,22,0.00,,,0.00,702.000000,,2013-08-29 20:22:00,
2013-08-29 14:52:00,89.0,45.0,-100.00,NE,44,7.0,16.0,22,0.00,,,0.00,702.000000,,2013-08-29 20:52:00,
2013-08-29 15:01:00,89.0,45.0,-100.00,NE,44,7.0,16.0,22,0.00,,,0.00,702.000000,,2013-08-29 21:01:00,
2013-08-29 15:12:00,89.0,45.0,-100.00,NE,44,7.0,16.0,22,0.00,,,0.00,702.000000,,2013-08-29 21:12:00,
2013-08-29 15:22:00,84.0,44.0,-100.00,NE,56,10.0,17.0,25,0.00,,,0.00,286.000000,,2013-08-29 21:22:00,
2013-08-29 15:54:00,84.0,44.0,-100.00,NE,56,10.0,17.0,25,0.00,,,0.00,286.000000,,2013-08-29 21:54:00,
2013-08-29 16:04:00,84.0,44.0,-100.00,NE,56,10.0,17.0,25,0.00,,,0.00,286.000000,,2013-08-29 22:04:00,
2013-08-29 16:14:00,84.0,44.0,-100.00,NE,56,10.0,17.0,25,0.00,,,0.00,286.000000,,2013-08-29 22:14:00,
2013-08-29 16:22:00,65.0,56.0,-100.00,NW,307,15.0,38.0,74,0.03,,,0.03,29.000000,,2013-08-29 22:22:00,
2013-08-29 17:53:00,68.0,59.0,-100.00,SW,230,11.0,25.0,72,0.07,,,0.10,318.000000,,2013-08-29 23:53:00,
2013-08-29 18:02:00,68.0,59.0,-100.00,SW,230,11.0,25.0,72,0.07,,,0.10,318.000000,,2013-08-30 00:02:00,
2013-08-29 18:12:00,68.0,59.0,-100.00,SW,230,11.0,25.0,72,0.07,,,0.10,318.000000,,2013-08-30 00:12:00,
2013-08-29 18:21:00,68.0,59.0,-100.00,SW,230,11.0,25.0,72,0.07,,,0.10,318.000000,,2013-08-30 00:21:00,
2013-08-29 18:52:00,74.0,54.0,-100.00,SSW,197,6.0,11.0,49,0.00,,,0.10,468.000000,,2013-08-30 00:52:00,
2013-08-29 19:01:00,74.0,54.0,-100.00,SSW,197,6.0,11.0,49,0.00,,,0.10,468.000000,,2013-08-30 01:01:00,
2013-08-29 19:12:00,74.0,54.0,-100.00,SSW,197,6.0,11.0,49,0.00,,,0.10,468.000000,,2013-08-30 01:12:00,
2013-08-29 19:21:00,74.0,54.0,-100.00,SSW,197,6.0,11.0,49,0.00,,,0.10,468.000000,,2013-08-30 01:21:00,
2013-08-29 19:52:00,71.0,54.0,-100.00,South,178,5.0,10.0,54,0.00,,,0.10,222.000000,,2013-08-30 01:52:00,
2013-08-29 20:02:00,71.0,54.0,-100.00,South,178,5.0,10.0,54,0.00,,,0.10,222.000000,,2013-08-30 02:02:00,
2013-08-29 20:11:00,71.0,54.0,-100.00,South,178,5.0,10.0,54,0.00,,,0.10,222.000000,,2013-08-30 02:11:00,
2013-08-29 20:21:00,71.0,54.0,-100.00,South,178,5.0,10.0,54,0.00,,,0.10,222.000000,,2013-08-30 02:21:00,
2013-08-29 20:22:00,66.0,52.0,-100.00,SSW,213,9.0,14.0,61,0.00,,,-99.99,28.000000,,2013-08-30 02:22:00,
2013-08-29 20:52:00,66.0,52.0,-100.00,SSW,213,9.0,14.0,61,0.00,,,-99.99,28.000000,,2013-08-30 02:52:00,
2013-08-29 21:02:00,66.0,52.0,-100.00,SSW,213,9.0,14.0,61,0.00,,,-99.99,28.000000,,2013-08-30 03:02:00,
2013-08-29 21:12:00,66.0,52.0,-100.00,SSW,213,9.0,14.0,61,0.00,,,-99.99,28.000000,,2013-08-30 03:12:00,
2013-08-29 21:22:00,64.0,54.0,-100.00,WSW,242,5.0,11.0,69,0.00,,,0.10,0.000000,,2013-08-30 03:22:00,
2013-08-29 21:55:00,64.0,54.0,-100.00,WSW,242,5.0,11.0,69,0.00,,,0.10,0.000000,,2013-08-30 03:55:00,
2013-08-29 22:04:00,64.0,54.0,-100.00,WSW,242,5.0,11.0,69,0.00,,,0.10,0.000000,,2013-08-30 04:04:00,
2013-08-29 22:14:00,64.0,54.0,-100.00,WSW,242,5.0,11.0,69,0.00,,,0.10,0.000000,,2013-08-30 04:14:00,
2013-08-29 22:22:00,62.0,51.0,-100.00,WSW,258,7.0,11.0,66,0.00,,,0.10,0.000000,,2013-08-30 04:22:00,
2013-08-29 22:54:00,62.0,51.0,-100.00,WSW,258,7.0,11.0,66,0.00,,,0.10,0.000000,,2013-08-30 04:54:00,
2013-08-29 23:03:00,62.0,51.0,-100.00,WSW,258,7.0,11.0,66,0.00,,,0.10,0.000000,,2013-08-30 05:03:00,
2013-08-29 23:12:00,62.0,51.0,-100.00,WSW,258,7.0,11.0,66,0.00,,,0.10,0.000000,,2013-08-30 05:12:00,
2013-08-29 23:22:00,62.0,50.0,-100.00,SW,227,4.0,8.0,64,0.00,,,0.10,0.000000,,2013-08-30 05:22:00,
2013-08-29 23:52:00,62.0,50.0,-100.00,SW,227,4.0,8.0,64,0.00,,,0.10,0.000000,,2013-08-30 05:52:00,